User: anonymous   Login
Location: Unspecified
(0.0000°N, 0.0000°E)
Time: 05:43:50
(UTC+00:00)
Language:

Kosmos-2218 - Orbit

View from above orbital plane
View from above orbital plane
View from above satellite
View from above satellite

Ground track
Ground track

The orbit data is extracted from the following two-line orbital elements,

1 22207U 92073A   18112.82381212  .00000014  00000-0 -15604-5 0  9991
2 22207  82.9233 180.0359 0032393 356.3235 141.1045 13.72866981276669
Epoch (UTC): 22 April 2018 19:46:17
Eccentricity: 0.0032393
inclination: 82.9233°
perigee height: 965 km
apogee height: 1013 km
right ascension of ascending node: 180.0359°
argument of perigee: 356.3235°
revolutions per day: 13.72866981
mean anomaly at epoch: 141.1045°
orbit number at epoch: 27666

The dashed part of the orbit path shows where the satellite is in the earth's shadow,  

DLR